[[{"header":{"parameterUnit":"m.s-1","parameterCategory":1,"la1":30.2991,"la2":30.254,"lo1":-89.0895,"lo2":-89.0444,"dy":0.0017,"dx":0.0017,"nx":28,"ny":28,"refTime":"2025-04-01T03:00:00:Z","depth":0,"parameterNumber":2,"parameterNumberName":"U-component_of_WINDS"},"data":[0,0,0,0,0,0,0,0,0,0,0,0,0,0,0,0,0,0,0,0,0,0,0,0,0,0,0,0,0,0,0,0,0,0,0,0,0,0,0,0,0,0,0,0,0,0,0,0,0,0,0,0,0,0,0,0,0,0,-4.0772,-4.0773,0,-4.0863,-4.0864,-4.0865,-4.0883,-4.0882,-4.0881,-4.0881,-4.0972,-4.0975,-4.0978,0,0,0,0,0,0,0,0,0,0,0,0,0,-4.0612,-4.0615,-4.0772,-4.0773,-4.0775,-4.0863,-4.0865,-4.0866,-4.0883,-4.0882,-4.0881,-4.088,-4.0971,-4.0975,-4.0979,0,0,0,0,0,0,0,0,0,0,0,0,0,-4.069,-4.0616,-4.0772,-4.0794,-4.0797,-4.0863,-4.0865,-4.0866,-4.0883,-4.0882,-4.0881,-4.088,-4.097,-4.0975,-4.0979,-4.103,0,0,-4.0994,-4.0996,0,0,0,0,0,0,0,0,-4.0685,-4.0696,-4.0789,-4.0792,-4.0796,-4.0861,-4.0842,-4.0921,-4.0883,-4.085,-4.0881,-4.0879,-4.0936,-4.0943,-4.0963,-4.1034,-4.1038,-4.0994,-4.0997,-4.0999,-4.1,0,0,0,0,0,0,0,-4.068,-4.0692,-4.0808,-4.0791,-4.0795,-4.0799,-4.0808,-4.0857,-4.0898,-4.0853,-4.0855,-4.0865,-4.0937,-4.0958,-4.0965,-4.1039,-4.0994,-4.0998,-4.1001,-4.1003,-4.1156,-4.1157,0,0,0,0,0,0,-4.0671,-4.0687,-4.0805,-4.0811,-4.0737,-4.0802,-4.0813,-4.0841,-4.0898,-4.0905,-4.0866,-4.0866,-4.0951,-4.096,-4.0968,-4.103,-4.0999,-4.1003,-4.1006,-4.1155,-4.1156,-4.1157,0,0,0,0,0,0,-4.0667,-4.0681,-4.0802,-4.075,-4.0765,-4.0806,-4.0837,-4.0843,-4.0864,-4.0907,-4.0915,-4.088,-4.095,-4.0962,-4.1014,-4.1033,-4.1005,-4.101,-4.1153,-4.1155,-4.1157,-4.1154,0,0,0,0,0,0,-4.0663,-4.068,-4.07,-4.075,-4.0768,-4.0846,-4.0838,-4.0846,-4.0872,-4.0873,-4.0922,-4.0929,-4.095,-4.1007,-4.1019,-4.1039,-4.1013,-4.1151,-4.1154,-4.1156,-4.1153,-4.1156,-4.1159,0,0,0,0,0,-4.0657,-4.0695,-4.0701,-4.0715,-4.0794,-4.0847,-4.0858,-4.0882,-4.0874,-4.0894,-4.0922,-4.0928,-4.103,-4.1012,-4.1026,-4.1048,-4.115,-4.1153,-4.1156,-4.1152,-4.1155,-4.1158,0,0,0,0,0,0,-4.0646,-4.0702,-4.0709,-4.0765,-4.0801,-4.085,-4.0876,-4.0885,-4.0924,-4.0923,-4.095,-4.0961,-4.1012,-4.1036,-4.1015,-4.1099,-4.109,-4.1095,-4.1082,-4.1086,-4.1088,-4.1081,-4.1017,0,0,0,0,0,-4.065,-4.0689,-4.0737,-4.0781,-4.0799,-4.0835,-4.0859,-4.0874,-4.0913,-4.0928,-4.096,-4.0997,-4.1037,-4.1063,-4.1103,-4.1157,-4.1167,-4.1179,-4.1182,-4.1184,-4.1188,-4.1217,-4.1222,-4.1167,-4.1167,-4.1167,0,0,-4.0659,-4.0695,-4.0718,-4.078,-4.081,-4.0849,-4.0847,-4.0889,-4.0919,-4.0935,-4.0985,-4.101,-4.1053,-4.1107,-4.1132,-4.1128,-4.1206,-4.1188,-4.1189,-4.1192,-4.1221,-4.1226,-4.123,-4.1169,-4.1168,-4.1168,0,0,-4.0694,-4.0726,-4.0766,-4.0796,-4.0842,-4.0865,-4.0875,-4.0923,-4.094,-4.0992,-4.1005,-4.104,-4.1109,-4.1139,-4.1163,-4.1211,-4.1217,-4.1223,-4.1237,-4.1265,-4.127,-4.1274,-4.1289,-4.1294,-4.1227,-4.1227,-4.1227,0,-4.0699,-4.0759,-4.0785,-4.0827,-4.0853,-4.0871,-4.0911,-4.0939,-4.0995,-4.1013,-4.1008,-4.1095,-4.1126,-4.1185,-4.1197,-4.1217,-4.1228,-4.1216,-4.1267,-4.1271,-4.1275,-4.129,-4.1296,-4.1228,-4.1227,-4.1227,-4.1227,0,-4.0762,-4.0803,-4.083,-4.0884,-4.0914,-4.0955,-4.0987,-4.1014,-4.1027,-4.1051,-4.1103,-4.114,-4.1187,-4.1203,-4.1216,-4.1265,-4.1261,-4.1262,-4.1252,-4.128,-4.1295,-4.1301,-4.1228,-4.1228,-4.1228,-4.1228,0,0,-4.0791,-4.0859,-4.0868,-4.0893,-4.0945,-4.0977,-4.1019,-4.1065,-4.1087,-4.1126,-4.116,-4.1219,-4.122,-4.1247,-4.1264,-4.1289,-4.1323,-4.1287,-4.1288,-4.129,-4.1377,-4.1374,-4.138,-4.1328,-4.133,-4.1331,-4.1372,0,-4.0831,-4.0905,-4.093,-4.0991,-4.1029,-4.1047,-4.1083,-4.1118,-4.1142,-4.1177,-4.1203,-4.1244,-4.1243,-4.1259,-4.1285,-4.1313,-4.134,-4.1311,-4.1359,-4.1361,-4.1345,-4.1388,-4.1386,-4.1423,-4.1378,-4.1379,-4.138,0,-4.0887,-4.0926,-4.0991,-4.1038,-4.1055,-4.1087,-4.1131,-4.1165,-4.1206,-4.1221,-4.1252,-4.1267,-4.1311,-4.13,-4.136,-4.1339,-4.1361,-4.1378,-4.138,-4.1383,-4.137,-4.1391,-4.1436,-4.1441,-4.1389,-4.1389,-4.1388,0,-4.0899,-4.0968,-4.1016,-4.1037,-4.1093,-4.1115,-4.1139,-4.1179,-4.1205,-4.1244,-4.1261,-4.1305,-4.1328,-4.1361,-4.1388,-4.1378,-4.1444,-4.1436,-4.1457,-4.1456,-4.1468,-4.1466,-4.1515,-4.1486,-4.1486,-4.1486,-4.1485,0,-4.0939,-4.0978,-4.1022,-4.1051,-4.1094,-4.1123,-4.1166,-4.1191,-4.1227,-4.126,-4.1279,-4.131,-4.1344,-4.138,-4.1401,-4.1446,-4.1457,-4.147,-4.1475,-4.1467,-4.1465,-4.148,-4.1477,-4.1487,-4.1487,-4.1486,-4.1486,0,-4.0959,-4.099,-4.1043,-4.1092,-4.1106,-4.1136,-4.1178,-4.1206,-4.1231,-4.1274,-4.1285,-4.1324,-4.1367,-4.1398,-4.1453,-4.1467,-4.1515,-4.1521,-4.1501,-4.1503,-4.1522,-4.1519,-4.158,-4.1589,-4.1555,-4.1555,-4.1555,0,-4.0982,-4.1012,-4.1064,-4.1089,-4.1113,-4.1152,-4.1179,-4.1209,-4.1236,-4.1285,-4.1307,-4.1352,-4.1389,-4.1457,-4.1489,-4.1532,-4.1537,-4.1556,-4.1543,-4.1535,-4.1535,-4.1532,-4.1535,-4.1557,-4.1557,-4.1557,-4.1557,0,-4.1018,-4.1032,-4.107,-4.1114,-4.1146,-4.1181,-4.1217,-4.1236,-4.1273,-4.1302,-4.1346,-4.1375,-4.1432,-4.1475,-4.1521,-4.1546,-4.1557,-4.1561,-4.1568,-4.1559,-4.1546,-4.1552,-4.1504,-4.1559,-4.1559,-4.1559,-4.1559,-4.1559,-4.1038,-4.1066,-4.1107,-4.1149,-4.1179,-4.1212,-4.1241,-4.127,-4.1308,-4.1356,-4.1372,-4.1418,-4.1458,-4.152,-4.1546,-4.1582,-4.1581,-4.1591,-4.1593,-4.1594,-4.1593,-4.1542,-4.1591,-4.1591,-4.1591,-4.1591,-4.1591,0,-4.1074,-4.1101,-4.114,-4.119,-4.1222,-4.1232,-4.1272,-4.1299,-4.1339,-4.1375,-4.1412,-4.1462,-4.1505,-4.1541,-4.1585,-4.1607,-4.1613,-4.1617,-4.1615,-4.162,-4.1593,-4.1582,-4.1611,-4.1611,-4.1611,-4.1611,-4.1611,-4.1611,-4.1096,-4.1142,-4.1161,-4.1222,-4.125,-4.1295,-4.1317,-4.1347,-4.1377,-4.1432,-4.1468,-4.1492,-4.1529,-4.1575,-4.1615,-4.1624,-4.1639,-4.1641,-4.1652,-4.1625,-4.1622,-4.162,-4.1609,-4.1645,-4.1645,-4.1676,-4.1676,-4.1677]},{"header":{"parameterUnit":"m.s-1","parameterCategory":1,"la1":30.2991,"la2":30.254,"lo1":-89.0895,"lo2":-89.0444,"dy":0.0017,"dx":0.0017,"nx":28,"ny":28,"refTime":"2025-04-01T03:00:00:Z","depth":0,"parameterNumber":3,"parameterNumberName":"V-component_of_WINDS"},"data":[0,0,0,0,0,0,0,0,0,0,0,0,0,0,0,0,0,0,0,0,0,0,0,0,0,0,0,0,0,0,0,0,0,0,0,0,0,0,0,0,0,0,0,0,0,0,0,0,0,0,0,0,0,0,0,0,0,0,4.1924,4.1925,0,4.2037,4.2038,4.2039,4.2043,4.2042,4.2041,4.204,4.215,4.2154,4.2158,0,0,0,0,0,0,0,0,0,0,0,0,0,4.1708,4.1711,4.1923,4.1925,4.1926,4.2036,4.2038,4.2039,4.2044,4.2042,4.204,4.2039,4.2149,4.2154,4.2159,0,0,0,0,0,0,0,0,0,0,0,0,0,4.1809,4.1713,4.1923,4.1942,4.1945,4.2036,4.2038,4.204,4.2044,4.2042,4.204,4.2038,4.2147,4.2153,4.2159,4.2238,0,0,4.2179,4.2181,0,0,0,0,0,0,0,0,4.1803,4.1817,4.1938,4.1941,4.1944,4.2024,4.2002,4.2106,4.2045,4.2006,4.2039,4.2037,4.2109,4.2119,4.2144,4.2243,4.2248,4.2179,4.2183,4.2186,4.2187,0,0,0,0,0,0,0,4.1796,4.1812,4.1968,4.1939,4.1943,4.1943,4.1955,4.2022,4.2067,4.2009,4.201,4.2024,4.2111,4.2138,4.2147,4.225,4.2179,4.2184,4.2188,4.2191,4.2421,4.2423,0,0,0,0,0,0,4.1786,4.1806,4.1964,4.1971,4.1867,4.1949,4.1962,4.2,4.2067,4.2075,4.2025,4.2023,4.2128,4.2139,4.2151,4.2249,4.2186,4.2191,4.2195,4.2419,4.2421,4.2424,0,0,0,0,0,0,4.1781,4.18,4.196,4.1889,4.1909,4.1955,4.1997,4.2004,4.2031,4.2079,4.2086,4.2045,4.2127,4.2142,4.2217,4.2252,4.2194,4.22,4.2416,4.2419,4.2423,4.2445,0,0,0,0,0,0,4.1775,4.1798,4.183,4.189,4.1913,4.2026,4.1999,4.2007,4.2042,4.2041,4.2099,4.2107,4.2127,4.2208,4.2223,4.226,4.2205,4.2413,4.2417,4.2422,4.2441,4.2448,4.2455,0,0,0,0,0,4.1767,4.183,4.1831,4.185,4.1954,4.2028,4.2041,4.2064,4.2045,4.2077,4.2108,4.2105,4.2246,4.2215,4.2233,4.2272,4.2411,4.2416,4.2421,4.2438,4.2447,4.2455,0,0,0,0,0,0,4.1771,4.1838,4.184,4.1924,4.1971,4.2029,4.2069,4.2073,4.2124,4.212,4.2144,4.2158,4.2233,4.226,4.2224,4.2353,4.2326,4.2335,4.2333,4.2342,4.2348,4.2341,4.221,0,0,0,0,0,4.1782,4.1838,4.1893,4.1962,4.1985,4.2023,4.2056,4.207,4.2118,4.2137,4.2173,4.2219,4.2274,4.2309,4.2362,4.2445,4.2458,4.248,4.2487,4.2493,4.25,4.2547,4.2558,4.2441,4.2441,4.2441,0,0,4.1804,4.1848,4.1881,4.1964,4.2001,4.2058,4.2039,4.21,4.2142,4.2146,4.222,4.2248,4.2301,4.2381,4.2418,4.2405,4.2536,4.2499,4.2503,4.2508,4.2554,4.2565,4.2575,4.2445,4.2444,4.2444,0,0,4.1874,4.1913,4.1975,4.2014,4.2071,4.2097,4.2111,4.2169,4.2189,4.2264,4.2269,4.2318,4.2412,4.245,4.2481,4.2567,4.2567,4.2583,4.2619,4.2665,4.2674,4.2683,4.2714,4.2725,4.259,4.259,4.259,0,4.1894,4.1981,4.2006,4.2068,4.2104,4.2112,4.2175,4.2211,4.2282,4.2306,4.2292,4.2411,4.2446,4.2536,4.2557,4.2582,4.2599,4.2577,4.2671,4.268,4.2688,4.2718,4.273,4.2592,4.2592,4.2592,4.2591,0,4.2004,4.2064,4.2107,4.2179,4.222,4.2281,4.2315,4.2353,4.2363,4.2389,4.2466,4.251,4.2572,4.2594,4.2603,4.2685,4.2676,4.2666,4.264,4.27,4.273,4.2741,4.2594,4.2594,4.2593,4.2593,0,0,4.2079,4.2165,4.218,4.2213,4.2278,4.2325,4.2387,4.245,4.2483,4.2531,4.2584,4.2663,4.2655,4.2691,4.2705,4.2745,4.2811,4.273,4.2732,4.2744,4.2905,4.2913,4.2926,4.2812,4.2814,4.2816,4.2901,0,4.2157,4.227,4.2295,4.2392,4.2448,4.2457,4.2511,4.2556,4.2582,4.2633,4.2661,4.2718,4.2702,4.2724,4.2764,4.2795,4.2844,4.2789,4.286,4.2863,4.2848,4.2941,4.295,4.3028,4.2913,4.2915,4.2916,0,4.2264,4.2318,4.2421,4.248,4.2505,4.2553,4.2614,4.2662,4.2713,4.2729,4.277,4.278,4.2844,4.2815,4.2903,4.2865,4.2896,4.2916,4.2919,4.2927,4.2894,4.2953,4.3054,4.3066,4.2934,4.2932,4.2931,0,4.231,4.2408,4.2483,4.2511,4.2581,4.2615,4.2646,4.2695,4.2732,4.2784,4.2808,4.2866,4.2898,4.2942,4.2967,4.2943,4.3055,4.3027,4.307,4.3069,4.3093,4.3091,4.3201,4.3111,4.3111,4.3111,4.311,0,4.2396,4.2459,4.2505,4.2551,4.2622,4.2649,4.2718,4.2748,4.2792,4.2844,4.2854,4.2901,4.2931,4.2983,4.3003,4.3074,4.3087,4.3102,4.3107,4.3102,4.31,4.3123,4.3119,4.3114,4.3113,4.3113,4.3112,0,4.246,4.2493,4.2576,4.2636,4.2653,4.2703,4.2754,4.2798,4.2825,4.289,4.2907,4.2948,4.301,4.3039,4.3115,4.3128,4.3209,4.3209,4.3193,4.3195,4.3236,4.3233,4.3366,4.3385,4.3281,4.3281,4.3282,0,4.2513,4.2562,4.2628,4.2665,4.2697,4.2754,4.2793,4.2821,4.286,4.2923,4.296,4.3022,4.3074,4.3172,4.3208,4.3266,4.3268,4.3311,4.3277,4.3271,4.327,4.3268,4.3273,4.3317,4.3318,4.3319,4.332,0,4.2604,4.2618,4.2674,4.2737,4.2783,4.2832,4.2881,4.2909,4.2945,4.2988,4.3053,4.3093,4.3172,4.3234,4.3294,4.3324,4.3328,4.333,4.3343,4.3339,4.3328,4.3336,4.321,4.3327,4.3326,4.3326,4.3325,4.3325,4.2665,4.271,4.2764,4.2826,4.2866,4.2912,4.2958,4.2991,4.3046,4.3113,4.3126,4.3194,4.3244,4.3327,4.3359,4.3412,4.3402,4.3421,4.3426,4.343,4.3434,4.3319,4.3423,4.3423,4.3422,4.3422,4.3422,0,4.2758,4.2794,4.2851,4.292,4.2969,4.2969,4.3024,4.3064,4.3125,4.3172,4.3224,4.3298,4.3358,4.3399,4.346,4.3495,4.3498,4.351,4.3508,4.3515,4.3438,4.3421,4.3506,4.3506,4.3506,4.3506,4.3506,4.3506,4.2812,4.2889,4.291,4.3006,4.304,4.3109,4.314,4.3182,4.3221,4.3304,4.3355,4.3382,4.3427,4.3491,4.3547,4.3557,4.3579,4.3592,4.3602,4.3529,4.352,4.3512,4.3496,4.3596,4.3596,4.3675,4.3676,4.3676]}]]